Tracking 19795 objects as of 19-Jul-2019
HD Live streaming from Space Station
objects crossing your sky now

FLOCK 2K 37

Track FLOCK 2K 37 now!
10-day predictions
FLOCK 2K 37 is classified as:


NORAD ID: 42867
Int'l Code: 2017-042AU
Perigee: 447.5 km
Apogee: 463.5 km
Inclination: 96.9 °
Period: 93.6 minutes
Semi major axis: 6826 km
RCS: Unknown
Launch date: July 14, 2017
Source: United States (US)
Launch site: TYURATAM MISSILE AND SPACE COMPLEX (TTMTR)
aabbcc
Your satellite tracking list
Your tracking list is empty




NASA's NSSDC Master Catalog

Two Line Element Set (TLE):
1 42867U 17042AU  19200.15748962  .00001319  00000-0  35790-4 0  9997
2 42867  96.9365  81.2867 0011723 108.3751 251.8772 15.39224074112652
Source of the keplerian elements: AFSPC